Weather History for KHDC - April, 2013

Change the Weather History Date:

Tuesday, April 9, 2013

  Actual Average (KMSY) Record (KMSY)
Temperature  
Mean Temperature 78 °F -  
Max Temperature 84 °F 75 °F 86 °F (1999)
Min Temperature 71 °F 55 °F 36 °F (1971)
Cooling Degree Days 12    
Growing Degree Days 28 (Base 50)    
Moisture  
Dew Point 68 °F    
Average Humidity 78    
Maximum Humidity 88    
Minimum Humidity 58    
Precipitation  
Precipitation 0.00 in - - ()
Sea Level Pressure  
Sea Level Pressure 29.99 in    
Wind  
Wind Speed 13 mph (SE)    
Max Wind Speed 20 mph    
Max Gust Speed 28 mph    
Visibility 8 miles    
Events Rain    
Averages and records for this station are not official NWS values.
T = Trace of Precipitation, MM = Missing Value Source: NWS Daily Summary

Daily Weather History Graph

Daily Weather History Graph

Search for Another Location

Airport or City:

Trip Planner

Search our weather history database for the weather conditions in past years. The results will help you decide how hot, cold, wet, or windy it might be!

Date:

Astronomy

Apr. 09, 2013 Rise Set
Actual Time 6:40 AM CDT 7:25 PM CDT
Civil Twilight 6:16 AM CDT 7:50 PM CDT
Nautical Twilight 5:47 AM CDT 8:19 PM CDT
Astronomical Twilight 5:18 AM CDT 8:48 PM CDT
Moon 6:01 AM CDT (4/9) 7:01 PM CDT (4/9)
Length of Visible Light 13h 33m
Length of Day
12h 44m
Waning Crescent, 1% of the Moon is Illuminated
Apr 9
Waning Crescent
Apr 10
New
Apr 18
First Quarter
Apr 25
Full
May 2
Last Quarter

Hourly Weather History & Observations

Time (CDT) Temp. Heat Index Dew Point Humidity Pressure Visibility Wind Dir Wind Speed Gust Speed Precip Events Conditions
12:15 AM 71.6 °F - 66.2 °F 83% 29.98 in 10.0 mi SE 11.5 mph 24.2 mph N/A   Overcast
12:35 AM 71.6 °F - 66.2 °F 83% 29.98 in 10.0 mi SE 18.4 mph 24.2 mph N/A   Overcast
12:55 AM 71.6 °F - 66.2 °F 83% 29.97 in 10.0 mi SE 12.7 mph - N/A   Overcast
1:15 AM 71.6 °F - 66.2 °F 83% 29.96 in 10.0 mi SE 10.4 mph - N/A   Mostly Cloudy
1:35 AM 71.6 °F - 66.2 °F 83% 29.96 in 10.0 mi SE 11.5 mph - N/A   Overcast
1:55 AM 71.6 °F - 66.2 °F 83% 29.95 in 7.0 mi SE 13.8 mph 17.3 mph N/A   Overcast
2:15 AM 71.6 °F - 66.2 °F 83% 29.94 in 7.0 mi SE 12.7 mph 17.3 mph N/A   Overcast
2:35 AM 71.6 °F - 66.2 °F 83% 29.94 in 7.0 mi SE 12.7 mph 17.3 mph N/A   Overcast
2:55 AM 71.6 °F - 66.2 °F 83% 29.94 in 7.0 mi SE 11.5 mph 16.1 mph N/A   Overcast
3:15 AM 71.6 °F - 66.2 °F 83% 29.94 in 7.0 mi SE 12.7 mph 17.3 mph N/A   Overcast
3:35 AM 71.6 °F - 66.2 °F 83% 29.93 in 7.0 mi SE 8.1 mph - N/A   Overcast
3:55 AM 71.6 °F - 66.2 °F 83% 29.93 in 7.0 mi SE 10.4 mph - N/A   Overcast
4:15 AM 71.6 °F - 66.2 °F 83% 29.94 in 7.0 mi SE 8.1 mph - N/A   Overcast
4:35 AM 71.6 °F - 66.2 °F 83% 29.93 in 7.0 mi SE 11.5 mph - N/A   Overcast
4:55 AM 71.6 °F - 66.2 °F 83% 29.95 in 7.0 mi SE 10.4 mph - N/A   Mostly Cloudy
5:15 AM 71.6 °F - 66.2 °F 83% 29.95 in 7.0 mi SE 12.7 mph - N/A   Mostly Cloudy
5:35 AM 71.6 °F - 66.2 °F 83% 29.95 in 7.0 mi SE 13.8 mph 17.3 mph N/A   Mostly Cloudy
5:55 AM 71.6 °F - 66.2 °F 83% 29.95 in 7.0 mi SE 10.4 mph - N/A   Mostly Cloudy
6:15 AM 71.6 °F - 66.2 °F 83% 29.96 in 7.0 mi SE 9.2 mph - N/A   Overcast
6:35 AM 71.6 °F - 66.2 °F 83% 29.97 in 7.0 mi SE 9.2 mph - N/A   Overcast
6:55 AM 71.6 °F - 66.2 °F 83% 29.98 in 7.0 mi SE 10.4 mph - N/A   Overcast
7:15 AM 71.6 °F - 66.2 °F 83% 29.98 in 5.0 mi SE 9.2 mph - N/A Rain Rain
7:35 AM 71.6 °F - 68.0 °F 88% 29.99 in 5.0 mi SE 9.2 mph - N/A   Haze
7:55 AM 71.6 °F - 68.0 °F 88% 30.00 in 7.0 mi SE 9.2 mph - N/A   Overcast
8:15 AM 71.6 °F - 68.0 °F 88% 30.00 in 7.0 mi SE 8.1 mph - N/A   Overcast
8:35 AM 73.4 °F - 68.0 °F 83% 30.00 in 7.0 mi SE 9.2 mph - N/A   Overcast
8:55 AM 73.4 °F - 68.0 °F 83% 30.00 in 7.0 mi SE 11.5 mph 17.3 mph N/A   Overcast
9:15 AM 73.4 °F - 68.0 °F 83% 30.00 in 7.0 mi SE 10.4 mph - N/A   Overcast
9:35 AM 73.4 °F - 68.0 °F 83% 30.01 in 7.0 mi SE 10.4 mph 17.3 mph N/A   Overcast
9:55 AM 75.2 °F - 68.0 °F 78% 30.01 in 7.0 mi SE 12.7 mph - N/A   Overcast
10:15 AM 75.2 °F - 68.0 °F 78% 30.02 in 7.0 mi SE 11.5 mph - N/A   Overcast
10:55 AM 77.0 °F - 68.0 °F 74% 30.03 in 7.0 mi SE 11.5 mph - N/A   Overcast
11:15 AM 77.0 °F - 68.0 °F 74% 30.03 in 10.0 mi SE 15.0 mph 19.6 mph N/A   Overcast
11:35 AM 77.0 °F - 68.0 °F 74% 30.04 in 7.0 mi SE 13.8 mph 17.3 mph N/A   Overcast
11:55 AM 78.8 °F - 69.8 °F 74% 30.03 in 7.0 mi SE 12.7 mph 16.1 mph N/A   Overcast
12:15 PM 80.6 °F 83.9 °F 69.8 °F 70% 30.03 in 10.0 mi SE 15.0 mph 20.7 mph N/A   Overcast
12:35 PM 80.6 °F 83.9 °F 69.8 °F 70% 30.03 in 10.0 mi SE 11.5 mph 18.4 mph N/A   Overcast
12:55 PM 80.6 °F 83.9 °F 69.8 °F 70% 30.02 in 10.0 mi SE 16.1 mph - N/A   Overcast
1:15 PM 82.4 °F 86.3 °F 69.8 °F 66% 30.01 in 10.0 mi SE 16.1 mph 23.0 mph N/A   Mostly Cloudy
1:35 PM 82.4 °F 85.4 °F 68.0 °F 62% 30.00 in 10.0 mi SSE 18.4 mph 26.5 mph N/A   Scattered Clouds
1:55 PM 84.2 °F 87.3 °F 68.0 °F 58% 30.00 in 7.0 mi SE 19.6 mph 25.3 mph N/A   Mostly Cloudy
2:15 PM 84.2 °F 87.3 °F 68.0 °F 58% 29.99 in 10.0 mi SSE 17.3 mph 25.3 mph N/A   Mostly Cloudy
2:35 PM 82.4 °F 85.4 °F 68.0 °F 62% 29.98 in 10.0 mi SSE 16.1 mph 25.3 mph N/A   Mostly Cloudy
2:55 PM 82.4 °F 86.3 °F 69.8 °F 66% 29.98 in 10.0 mi SSE 12.7 mph 21.9 mph N/A   Mostly Cloudy
3:15 PM 80.6 °F 83.2 °F 68.0 °F 65% 29.98 in 10.0 mi SE 18.4 mph 23.0 mph N/A   Scattered Clouds
3:35 PM 80.6 °F 83.2 °F 68.0 °F 65% 29.98 in 10.0 mi SE 19.6 mph 26.5 mph N/A   Scattered Clouds
3:55 PM 80.6 °F 83.9 °F 69.8 °F 70% 29.98 in 10.0 mi SE 18.4 mph 25.3 mph N/A   Mostly Cloudy
4:15 PM 80.6 °F 83.9 °F 69.8 °F 70% 29.98 in 10.0 mi SE 17.3 mph 21.9 mph N/A   Mostly Cloudy
4:35 PM 78.8 °F - 68.0 °F 69% 29.98 in 10.0 mi SE 18.4 mph 23.0 mph N/A   Mostly Cloudy
4:55 PM 78.8 °F - 68.0 °F 69% 29.97 in 10.0 mi SE 16.1 mph 21.9 mph N/A   Mostly Cloudy
5:15 PM 78.8 °F - 68.0 °F 69% 29.98 in 10.0 mi SE 15.0 mph - N/A   Mostly Cloudy
5:35 PM 78.8 °F - 68.0 °F 69% 29.99 in 10.0 mi SE 15.0 mph 24.2 mph N/A   Mostly Cloudy
5:55 PM 77.0 °F - 68.0 °F 74% 30.00 in 10.0 mi SE 16.1 mph - N/A   Mostly Cloudy
6:15 PM 77.0 °F - 68.0 °F 74% 30.00 in 10.0 mi SE 13.8 mph 19.6 mph N/A   Overcast
6:35 PM 77.0 °F - 68.0 °F 74% 30.00 in 7.0 mi SE 12.7 mph 20.7 mph N/A   Overcast
6:55 PM 75.2 °F - 68.0 °F 78% 30.00 in 7.0 mi ESE 13.8 mph 19.6 mph N/A   Overcast
7:15 PM 75.2 °F - 68.0 °F 78% 30.00 in 1.8 mi ESE 11.5 mph 19.6 mph N/A Rain Light Rain
7:35 PM 75.2 °F - 68.0 °F 78% 30.00 in 10.0 mi SE 12.7 mph 19.6 mph N/A   Overcast
7:55 PM 75.2 °F - 68.0 °F 78% 30.00 in 10.0 mi SE 13.8 mph - N/A   Overcast
8:15 PM 75.2 °F - 68.0 °F 78% 30.00 in 10.0 mi ESE 17.3 mph 25.3 mph N/A   Overcast
8:35 PM 75.2 °F - 68.0 °F 78% 30.00 in 10.0 mi SE 16.1 mph 27.6 mph N/A   Overcast
8:55 PM 73.4 °F - 68.0 °F 83% 30.00 in 7.0 mi SE 13.8 mph 24.2 mph N/A   Overcast
9:15 PM 73.4 °F - 68.0 °F 83% 30.01 in 7.0 mi ESE 16.1 mph 20.7 mph N/A   Overcast
9:55 PM 73.4 °F - 68.0 °F 83% 30.01 in 7.0 mi SE 15.0 mph 24.2 mph N/A   Overcast
10:15 PM 73.4 °F - 68.0 °F 83% 30.00 in 7.0 mi SE 17.3 mph 23.0 mph N/A   Overcast
10:35 PM 73.4 °F - 68.0 °F 83% 30.00 in 7.0 mi SE 17.3 mph 24.2 mph N/A   Overcast
10:55 PM 73.4 °F - 68.0 °F 83% 30.00 in 7.0 mi SE 16.1 mph 27.6 mph N/A   Overcast
11:15 PM 73.4 °F - 68.0 °F 83% 30.00 in 7.0 mi SE 13.8 mph 21.9 mph N/A   Overcast
11:35 PM 73.4 °F - 68.0 °F 83% 29.99 in 7.0 mi SE 15.0 mph 21.9 mph N/A   Overcast
11:55 PM 73.4 °F - 68.0 °F 83% 29.99 in 7.0 mi SE 16.1 mph - N/A   Overcast